Overview Statistics Trail Chart Weather Telemetry Raw packets
 

This is the latest recevied weather packets stored in our database for station/object N0QV. If no packets are shown the sender has not sent any weather packets the latest 10 day(s).

<< 110 111 112 113 114 >>
Time Temp. Humidity Pressure Rain* Wind** Luminosity Snow
1787834199 16.11° C 94% 1018.9 hPa 0 mm - 47 W/m² -
1787833896 15.56° C 94% 1019 hPa 0 mm - 40 W/m² -
1787833596 15.56° C 94% 1019 hPa 0 mm - 37 W/m² -
1787833292 15.56° C 94% 1018.8 hPa 0 mm - 34 W/m² -
1787832987 15.56° C 94% 1018.9 hPa 0 mm - 30 W/m² -
1787832684 15° C 94% 1018.9 hPa 0 mm - 26 W/m² -
1787832382 15° C 94% 1018.4 hPa 0 mm - 21 W/m² -
1787832076 15° C 95% 1018.6 hPa 0 mm - 18 W/m² -
1787831775 15° C 95% 1018.5 hPa 0 mm - 15 W/m² -
1787831474 15° C 95% 1018.5 hPa 0 mm - 10 W/m² -
1787831173 15° C 95% 1018.4 hPa 0 mm - 7 W/m² -
1787830870 15° C 94% 1018.4 hPa 0 mm - 5 W/m² -
1787830569 15° C 95% 1018.2 hPa 0 mm - 2 W/m² -
1787830263 15° C 94% 1018.2 hPa 0 mm - 0 W/m² -
1787829963 15° C 94% 1018.1 hPa 0 mm - 0 W/m² -
1787829662 15° C 94% 1018.3 hPa 0 mm - 0 W/m² -
1787829358 15° C 94% 1018.2 hPa 0 mm - 0 W/m² -
1787829054 15° C 94% 1018.2 hPa 0 mm - 0 W/m² -
1787828749 15° C 94% 1018.2 hPa 0 mm - 0 W/m² -
1787828445 15° C 94% 1018.1 hPa 0 mm - 0 W/m² -
1787828144 15° C 94% 1018.2 hPa 0 mm - 0 W/m² -
1787827843 15° C 94% 1018 hPa 0 mm - 0 W/m² -
1787827539 15° C 94% 1017.9 hPa 0 mm - 0 W/m² -
1787827242 15° C 94% 1018 hPa 0 mm - 0 W/m² -
1787826937 15.56° C 94% 1018.2 hPa 0 mm - 0 W/m² -

* Rain latest hour (hover to see other rain measurements)
** Current wind speed in m/s (hover to see current wind gust speed)